Weather History for KQIR - May, 2013

Change the Weather History Date:

Tuesday, May 28, 2013

  Actual Average Record
Temperature  
Mean Temperature 91 °F -  
Max Temperature 106 °F - - ()
Min Temperature 76 °F - - ()
Cooling Degree Days 26    
Growing Degree Days 41 (Base 50)    
Moisture  
Dew Point 50 °F    
Average Humidity 27    
Maximum Humidity 55    
Minimum Humidity 9    
Precipitation  
Precipitation 0.00 in - - ()
Sea Level Pressure  
Sea Level Pressure 29.66 in    
Wind  
Wind Speed 6 mph ()    
Max Wind Speed 14 mph    
Max Gust Speed 16 mph    
Visibility 6.2 miles    
Events      
T = Trace of Precipitation, MM = Missing Value Source: Averaged Metar Reports

Daily Weather History Graph

Daily Weather History Graph

Search for Another Location

Airport or City:

Trip Planner

Search our weather history database for the weather conditions in past years. The results will help you decide how hot, cold, wet, or windy it might be!

Date:

Astronomy

May. 28, 2013 Rise Set
Actual Time 4:45 AM AST 6:18 PM AST
Civil Twilight 4:19 AM AST 6:44 PM AST
Nautical Twilight 3:49 AM AST 7:14 PM AST
Astronomical Twilight 3:17 AM AST 7:46 PM AST
Moon 9:36 PM AST (5/28) 7:58 AM AST (5/28)
Length of Visible Light 14h 24m
Length of Day
13h 33m
Waning Gibbous, 85% of the Moon is Illuminated
May 28
Waning Gibbous
May 31
Last Quarter
Jun 8
New
Jun 16
First Quarter
Jun 23
Full

Hourly Weather History & Observations

Time (AST) Temp. Heat Index Dew Point Humidity Pressure Visibility Wind Dir Wind Speed Gust Speed Precip Events Conditions
12:55 AM 86.7 °F 84.7 °F 53.2 °F 32% 29.62 in 6.2 mi NNE 5.8 mph - N/A   Clear
1:55 AM 80.4 °F 80.2 °F 53.8 °F 40% 29.62 in 6.2 mi South 9.2 mph - N/A   Clear
2:55 AM 77.4 °F - 51.6 °F 41% 29.63 in 6.2 mi WSW 3.5 mph - N/A   Clear
3:55 AM 78.1 °F - 52.3 °F 41% 29.63 in 6.2 mi North 5.8 mph - N/A   Clear
4:55 AM 76.8 °F - 51.3 °F 41% 29.65 in 6.2 mi North 5.8 mph - N/A   Clear
5:55 AM 80.1 °F 80.3 °F 56.5 °F 44% 29.67 in 6.2 mi North 3.5 mph - N/A   Clear
6:55 AM 84.4 °F 86.8 °F 66.7 °F 55% 29.69 in 6.2 mi Calm Calm - N/A   Clear
7:55 AM 93.4 °F 94.3 °F 62.8 °F 36% 29.69 in 6.2 mi ENE 5.8 mph - N/A   Clear
8:55 AM 99.7 °F - 50.0 °F 19% 29.71 in 6.2 mi East 9.2 mph - N/A   Clear
9:55 AM 103.6 °F - 38.7 °F 11% 29.71 in 6.2 mi ENE 10.4 mph - N/A   Clear
10:55 AM 105.1 °F - 43.5 °F 12% 29.70 in 6.2 mi East 11.5 mph - N/A   Clear
11:55 AM 105.6 °F - 38.3 °F 10% 29.69 in 6.2 mi East 10.4 mph 16.1 mph N/A   Scattered Clouds
12:55 PM 106.0 °F - 37.9 °F 10% 29.68 in 6.2 mi ESE 8.1 mph - N/A   Clear
1:55 PM 106.3 °F - 37.2 °F 9% 29.66 in 6.2 mi East 8.1 mph - N/A   Clear
2:55 PM 106.5 °F - 37.2 °F 9% 29.64 in 6.2 mi East 9.2 mph - N/A   Clear
3:55 PM 105.3 °F - 42.8 °F 12% 29.63 in 6.2 mi East 13.8 mph - N/A   Clear
4:55 PM 100.0 °F - 45.7 °F 16% 29.65 in 6.2 mi NE 13.8 mph - N/A   Clear
5:55 PM 96.6 °F - 48.7 °F 20% 29.65 in 6.2 mi ENE 9.2 mph - N/A   Clear
6:55 PM 94.6 °F - 50.9 °F 23% 29.66 in 6.2 mi ENE 5.8 mph - N/A   Clear
7:55 PM 91.9 °F 89.5 °F 53.1 °F 27% 29.67 in 6.2 mi ENE 4.6 mph - N/A   Clear
8:55 PM 89.2 °F 87.1 °F 53.6 °F 30% 29.68 in 6.2 mi Calm Calm - N/A   Clear
9:55 PM 88.3 °F 86.7 °F 55.6 °F 33% 29.68 in 6.2 mi ENE 4.6 mph - N/A   Clear
10:55 PM 84.7 °F 83.7 °F 56.7 °F 38% 29.67 in 6.2 mi Calm Calm - N/A   Clear
11:55 PM 83.7 °F 82.8 °F 56.3 °F 39% 29.65 in 6.2 mi WNW 4.6 mph - N/A   Clear